TimePDT,TemperatureF,Dew PointF,Humidity,Sea Level PressureIn,VisibilityMPH,Wind Direction,Wind SpeedMPH,Gust SpeedMPH,PrecipitationIn,Events,Conditions,WindDirDegrees,DateUTC
12:53 AM,64.9,63.0,93,29.97,10.0,West,6.9,-,N/A,,Overcast,260,2013-09-12 07:53:00
1:53 AM,64.9,63.0,93,29.97,10.0,West,11.5,-,N/A,,Overcast,280,2013-09-12 08:53:00
2:53 AM,64.9,64.0,97,29.96,10.0,WNW,3.5,-,N/A,,Overcast,300,2013-09-12 09:53:00
3:11 AM,64.4,64.4,100,29.96,10.0,West,6.9,-,N/A,,Overcast,270,2013-09-12 10:11:00
3:46 AM,64.4,64.4,100,29.96,10.0,West,8.1,-,N/A,,Overcast,260,2013-09-12 10:46:00
3:53 AM,64.0,64.0,100,29.96,9.0,West,5.8,-,N/A,,Overcast,260,2013-09-12 10:53:00
4:53 AM,64.0,64.0,100,29.96,10.0,WNW,5.8,-,N/A,,Overcast,300,2013-09-12 11:53:00
5:10 AM,64.4,64.4,100,29.96,10.0,West,5.8,-,N/A,,Overcast,270,2013-09-12 12:10:00
5:53 AM,63.0,63.0,100,29.96,10.0,WNW,9.2,-,0.00,Rain,Light Rain,290,2013-09-12 12:53:00
6:53 AM,64.0,64.0,100,29.97,10.0,WNW,4.6,-,0.00,,Overcast,300,2013-09-12 13:53:00
7:53 AM,64.0,63.0,96,29.98,10.0,West,5.8,-,N/A,,Overcast,260,2013-09-12 14:53:00
8:53 AM,64.0,63.0,96,29.99,10.0,WSW,5.8,-,N/A,,Overcast,250,2013-09-12 15:53:00
9:53 AM,64.0,64.0,100,29.99,10.0,West,3.5,-,N/A,,Overcast,280,2013-09-12 16:53:00
10:53 AM,64.9,64.0,97,29.99,10.0,West,6.9,-,N/A,,Overcast,270,2013-09-12 17:53:00
11:53 AM,66.0,63.0,90,29.98,10.0,WSW,6.9,-,N/A,,Overcast,250,2013-09-12 18:53:00
12:53 PM,66.9,63.0,87,29.97,10.0,WSW,6.9,-,N/A,,Overcast,250,2013-09-12 19:53:00
1:53 PM,69.1,63.0,81,29.95,10.0,West,4.6,-,N/A,,Partly Cloudy,270,2013-09-12 20:53:00
2:53 PM,71.1,63.0,75,29.93,10.0,West,9.2,-,N/A,,Partly Cloudy,280,2013-09-12 21:53:00
3:53 PM,70.0,63.0,78,29.92,10.0,West,18.4,-,N/A,,Partly Cloudy,280,2013-09-12 22:53:00
4:53 PM,68.0,64.0,87,29.91,10.0,West,19.6,-,N/A,,Partly Cloudy,280,2013-09-12 23:53:00
5:47 PM,66.2,64.4,94,29.91,10.0,West,19.6,-,N/A,,Partly Cloudy,280,2013-09-13 00:47:00
5:53 PM,64.9,64.0,97,29.91,10.0,West,20.7,-,N/A,,Scattered Clouds,280,2013-09-13 00:53:00
6:16 PM,64.4,62.6,94,29.92,10.0,WNW,9.2,27.6,N/A,,Mostly Cloudy,290,2013-09-13 01:16:00
6:53 PM,63.0,63.0,100,29.92,10.0,West,17.3,-,N/A,,Mostly Cloudy,270,2013-09-13 01:53:00
7:53 PM,62.1,62.1,100,29.93,10.0,West,13.8,-,N/A,,Overcast,270,2013-09-13 02:53:00
8:53 PM,62.1,62.1,100,29.94,10.0,West,15.0,-,N/A,,Overcast,280,2013-09-13 03:53:00
9:53 PM,62.1,62.1,100,29.94,10.0,West,11.5,-,N/A,,Overcast,260,2013-09-13 04:53:00
10:53 PM,61.0,61.0,100,29.94,10.0,WNW,5.8,-,N/A,,Overcast,290,2013-09-13 05:53:00
11:53 PM,62.1,62.1,100,29.93,10.0,West,5.8,-,N/A,,Overcast,270,2013-09-13 06:53:00